Wind_Speed
24 24 24 24 23 22 22 21 19 17 16 15 15 14 13 12 12 11 10 9 9 9 9 9 8 8 8 7 7 7 7 7 8 8 9 10 13 15 16 17 17 18 18 19
25 25 26 25 25 24 23 21 19 18 16 15 15 15 15 14 13 12 11 11 11 11 11 11 11 10 9 8 9 9 8 8 8 8 9 10 11 14 14 15 17 18 18 19
27 26 26 27 25 24 23 22 21 20 18 17 16 16 15 14 14 13 13 12 13 13 14 13 13 12 11 10 10 10 9 9 9 9 9 10 11 13 14 15 17 17 18 19
28 27 29 27 25 24 24 23 22 21 20 18 18 17 16 15 15 15 14 14 15 15 16 15 15 14 13 12 12 11 11 10 10 10 10 11 12 13 14 16 17 18 18 19
30 30 29 28 26 25 24 23 22 21 20 20 19 18 18 18 18 18 17 17 17 16 16 17 17 16 15 14 13 13 13 13 12 12 11 12 13 13 14 16 17 18 18 19
32 32 31 29 28 27 25 24 23 22 22 22 22 21 20 20 20 20 19 19 19 18 17 18 18 18 18 16 15 15 14 15 14 13 13 13 13 13 14 16 17 17 18 19
34 33 32 30 29 28 27 25 24 24 24 23 23 23 22 22 21 20 20 20 20 20 19 18 18 18 18 18 17 17 16 16 16 15 15 15 15 15 16 17 18 18 18 19
35 34 32 29 30 30 28 26 26 25 24 24 24 22 21 21 21 21 21 21 21 20 20 20 20 20 20 19 18 18 18 17 17 17 17 18 18 18 18 18 19 18 18 20
33 33 31 30 30 29 29 28 28 27 26 25 24 23 22 22 22 23 22 22 22 21 21 21 21 21 21 20 21 20 20 19 19 19 19 19 19 19 19 18 19 20 20 21
31 30 31 31 30 29 28 27 27 27 26 24 23 23 23 23 23 23 23 23 23 22 22 23 23 23 22 22 22 22 22 21 21 21 20 20 19 20 21 21 21 22 22 23
29 29 30 30 30 29 28 27 26 26 25 24 23 22 23 24 23 22 23 22 22 23 23 23 23 23 23 23 22 22 22 22 22 21 21 21 21 21 21 22 23 24 24 25
26 26 27 27 27 26 26 26 25 25 24 23 23 23 22 21 22 22 22 22 22 22 22 22 21 22 23 23 23 23 22 22 22 22 23 23 22 23 23 24 24 25 27 28
24 24 24 23 24 24 24 24 24 24 23 22 21 21 21 20 19 19 20 20 21 21 21 21 20 20 21 22 22 22 21 21 21 22 23 24 25 25 25 26 27 27 28 29
22 22 22 22 22 22 22 23 22 22 21 21 20 20 20 19 18 18 18 18 18 18 19 19 19 19 19 19 19 19 20 21 22 22 23 24 25 27 27 28 29 30 30 31
22 21 20 21 21 21 20 21 21 20 20 20 20 19 18 18 17 16 16 16 16 17 17 18 18 18 19 19 19 20 21 21 22 22 23 24 25 26 28 29 29 30 30 31
20 19 19 19 19 18 19 19 19 20 19 19 17 17 16 16 15 15 14 14 15 15 15 16 16 17 17 17 18 19 19 20 21 22 23 24 24 25 26 27 27 28 29 29
19 18 18 18 19 18 18 18 18 18 17 17 16 16 16 15 15 15 14 13 14 14 14 14 15 15 15 16 17 18 19 19 20 21 22 23 23 24 25 26 26 27 28 30
18 18 18 19 18 18 17 17 16 15 14 14 15 15 15 15 15 15 14 14 14 14 14 14 15 16 16 16 17 18 19 20 21 21 21 22 22 24 25 26 27 28 30 32
17 17 17 17 18 17 16 15 15 14 13 14 13 13 13 13 13 13 13 13 14 13 13 14 15 15 16 16 17 18 19 20 20 21 21 22 23 25 26 28 29 31 33 35
16 15 15 16 16 15 15 14 13 13 12 12 12 12 12 12 11 12 12 13 13 13 14 14 14 15 16 16 17 18 19 19 20 21 23 24 26 27 28 30 32 34 35 37
14 14 15 15 15 14 13 13 12 12 11 11 11 11 10 11 11 11 12 13 13 14 14 15 15 16 17 17 18 19 20 21 22 23 25 26 28 29 31 33 34 35 36 37
14 15 15 15 15 14 14 13 13 12 12 12 11 11 11 12 12 13 14 13 13 14 14 15 15 17 18 19 20 21 21 22 23 25 26 27 29 31 32 33 34 34 35 35
15 15 15 14 13 13 13 13 12 12 11 11 11 12 12 13 13 14 14 14 14 15 15 15 16 17 19 20 21 21 22 23 25 26 28 29 30 31 31 32 32 33 33 33
15 15 15 14 13 12 12 11 11 11 10 10 11 11 12 12 13 13 14 14 14 15 16 17 18 19 20 21 23 24 25 26 27 28 29 29 30 30 30 30 30 30 30 30
14 14 14 13 12 12 11 11 10 10 10 10 10 10 11 11 11 12 13 14 15 16 17 18 20 21 23 24 25 25 26 26 27 28 29 29 29 29 28 28 28 28 29 29
13 13 12 12 11 10 10 10 9 9 9 10 10 10 11 11 12 13 15 16 18 19 20 21 22 23 24 24 25 25 26 27 27 28 28 28 28 27 27 27 27 28 28 28
12 12 12 11 11 10 10 10 10 11 11 11 11 12 13 14 16 17 18 19 20 21 22 23 24 24 24 25 25 26 26 27 27 27 27 27 26 26 26 26 26 26 26 25
Wind_Direction
225 226 230 235 238 242 245 249 253 258 259 257 262 264 264 268 272 271 268 271 274 268 274 277 277 281 283 290 300 298 295 281 272 264 256 244 234 233 232 234 236 240 244 245
228 229 233 236 237 241 245 250 254 256 256 255 263 266 266 269 269 264 264 269 273 272 270 274 274 277 280 284 293 294 293 286 284 278 263 250 241 237 237 238 239 242 244 249
233 234 237 238 239 242 246 250 255 256 257 258 262 266 267 267 265 261 258 271 278 279 276 273 269 270 275 280 285 286 285 282 280 280 272 258 249 241 242 243 243 244 247 251
234 236 239 240 241 244 246 251 255 257 257 259 261 263 264 267 265 266 264 269 276 276 274 271 269 271 273 276 277 280 283 279 274 275 273 266 257 250 252 250 249 248 251 252
235 237 241 243 244 247 249 252 256 257 257 257 259 261 263 264 268 267 265 272 274 272 270 268 269 268 269 271 277 276 278 276 270 268 269 267 262 257 256 255 256 254 256 255
239 240 242 245 247 248 250 252 254 257 258 258 259 262 263 266 267 266 266 270 270 267 268 267 268 269 268 270 274 274 275 272 271 270 266 264 265 264 265 263 261 261 260 261
239 242 243 244 246 248 250 253 255 257 259 261 261 263 263 264 265 264 265 266 267 266 267 267 267 268 268 269 269 267 269 270 268 266 265 264 265 265 266 267 267 268 266 267
238 241 244 245 246 249 251 253 255 257 259 260 260 261 263 263 263 264 264 266 266 264 263 265 266 267 269 268 267 265 264 265 265 265 266 265 264 265 265 266 270 274 274 272
239 241 244 246 247 249 251 252 254 255 257 259 259 260 261 261 263 266 267 267 265 262 262 264 265 265 266 266 265 263 259 261 263 264 264 264 260 264 269 271 273 276 276 276
237 239 240 243 246 249 250 253 255 254 254 256 256 258 259 262 265 265 266 267 266 264 264 263 263 263 263 262 261 260 259 261 263 262 263 265 264 267 270 271 273 276 277 278
236 238 241 244 246 247 248 250 252 252 252 252 254 257 260 262 263 264 263 264 263 263 264 263 262 263 263 261 259 258 258 260 263 264 263 267 268 268 273 276 277 278 280 281
234 236 239 241 241 242 244 247 248 249 250 252 256 259 262 263 264 264 263 262 261 262 263 263 263 262 262 262 260 257 258 261 263 264 263 264 267 270 275 278 279 280 282 283
232 235 236 236 236 238 241 243 246 245 246 249 254 257 259 262 262 263 262 260 260 261 261 263 265 267 265 262 258 256 258 261 263 264 264 264 266 270 275 278 279 281 281 282
231 234 234 234 235 236 238 239 239 241 244 248 250 253 256 258 261 262 262 259 260 260 261 262 265 267 265 262 260 259 261 263 264 265 266 269 271 273 275 279 280 281 281 281
228 231 232 232 232 233 234 234 235 237 240 242 244 248 253 257 259 260 262 263 265 266 265 263 264 263 262 261 261 263 264 265 266 267 269 272 276 277 279 281 283 284 284 285
223 225 225 225 226 228 230 231 233 235 237 236 239 246 252 254 255 259 264 267 266 266 265 262 260 261 262 261 262 265 268 268 269 271 273 276 278 280 282 283 283 284 284 285
220 221 221 221 222 224 227 229 232 232 234 235 241 247 251 252 255 260 262 265 264 265 264 261 258 259 262 264 265 267 270 271 273 276 278 280 280 282 283 284 285 286 287 290
217 218 219 220 220 222 225 226 227 229 233 237 241 246 249 252 255 255 256 258 260 264 262 262 261 263 264 266 268 269 270 273 276 278 280 282 283 284 287 289 291 292 294 295
213 215 215 213 213 216 219 221 223 226 228 233 237 240 245 250 253 254 255 257 259 262 264 267 268 267 268 270 273 274 276 277 279 282 284 286 288 290 291 292 294 295 296 297
205 206 207 206 205 209 213 215 218 221 225 228 230 234 238 246 252 254 255 256 258 261 264 265 268 270 272 275 277 278 280 280 282 284 286 289 291 292 294 295 297 298 298 299
198 200 201 200 200 200 202 204 208 213 218 221 225 231 240 246 252 258 260 261 263 265 266 268 271 273 276 279 280 281 282 284 286 288 290 292 294 296 298 299 300 300 301 301
195 196 196 195 196 196 200 205 211 216 222 226 232 239 244 247 255 260 262 264 267 270 272 274 276 278 280 282 283 284 286 289 292 294 296 297 299 300 301 302 302 303 304 305
194 195 195 194 197 202 205 207 213 218 224 230 237 241 244 250 259 262 263 264 266 271 274 277 281 284 286 288 288 289 292 294 296 298 300 301 302 303 304 305 306 306 307 308
191 194 196 196 199 203 207 213 219 224 231 238 244 247 249 253 256 259 263 268 272 276 279 282 284 286 288 289 290 292 294 297 299 300 302 303 304 305 306 307 308 309 310 311
188 193 196 199 206 212 215 219 225 231 238 242 247 252 254 258 264 269 273 276 279 282 284 286 288 290 291 293 295 297 298 300 301 303 303 304 305 306 307 308 310 311 312 313
185 190 195 200 203 207 212 220 228 234 241 249 252 255 262 270 275 279 282 284 285 287 289 290 292 295 297 298 299 300 301 303 304 305 305 305 305 305 306 308 310 312 314 315
190 195 200 204 208 214 221 231 240 246 252 257 261 266 271 276 281 284 286 287 288 290 292 294 295 297 298 299 300 300 302 303 304 304 305 305 305 306 308 309 310 313 315 316
Height
5792 5795 5797 5800 5803 5805 5808 5810 5813 5815 5817 5818 5819 5820 5821 5822 5822 5822 5822 5822 5823 5823 5822 5822 5821 5821 5820 5820 5819 5818 5817 5817 5816 5815 5816 5816 5817 5819 5820 5822 5824 5826 5828 5830
5787 5790 5792 5795 5798 5801 5803 5806 5808 5810 5813 5814 5815 5816 5817 5818 5819 5819 5819 5819 5819 5819 5819 5819 5819 5818 5818 5817 5817 5816 5815 5815 5814 5813 5813 5813 5814 5816 5817 5819 5821 5823 5824 5825
5782 5785 5787 5790 5793 5796 5798 5801 5803 5806 5809 5810 5811 5812 5813 5814 5814 5815 5816 5816 5816 5816 5816 5816 5815 5815 5815 5814 5814 5814 5813 5813 5813 5812 5811 5811 5812 5813 5814 5816 5817 5818 5820 5821
5776 5780 5781 5787 5788 5790 5793 5796 5798 5801 5803 5805 5806 5807 5808 5809 5810 5811 5812 5812 5812 5812 5812 5812 5812 5812 5811 5811 5811 5811 5811 5810 5810 5810 5810 5810 5810 5811 5811 5812 5813 5815 5815 5816
5770 5772 5775 5780 5783 5785 5788 5790 5793 5795 5798 5799 5801 5802 5803 5804 5805 5806 5807 5807 5808 5808 5808 5808 5807 5807 5807 5808 5808 5808 5808 5808 5808 5808 5808 5808 5808 5808 5808 5809 5809 5809 5810 5811
5763 5766 5770 5775 5777 5779 5783 5785 5788 5790 5792 5794 5796 5798 5799 5799 5800 5801 5801 5802 5802 5803 5803 5803 5803 5803 5804 5804 5804 5804 5804 5804 5804 5804 5805 5805 5805 5805 5805 5805 5805 5805 5805 5806
5756 5759 5763 5767 5770 5774 5777 5781 5782 5784 5785 5787 5789 5791 5792 5793 5794 5795 5796 5796 5797 5797 5797 5797 5798 5798 5799 5799 5799 5800 5800 5800 5800 5800 5801 5801 5801 5801 5801 5801 5801 5801 5801 5801
5749 5753 5759 5761 5764 5768 5770 5773 5775 5777 5779 5780 5783 5784 5786 5787 5788 5788 5789 5790 5791 5791 5792 5792 5792 5793 5793 5793 5794 5795 5795 5795 5795 5795 5796 5796 5796 5796 5796 5797 5797 5796 5796 5796
5743 5748 5751 5754 5757 5760 5763 5766 5768 5770 5772 5774 5776 5778 5779 5780 5782 5782 5783 5784 5784 5785 5785 5786 5787 5787 5788 5788 5788 5789 5789 5790 5790 5790 5790 5790 5791 5791 5791 5791 5791 5791 5790 5790
5736 5740 5744 5747 5750 5753 5756 5759 5761 5763 5766 5768 5769 5771 5772 5774 5775 5776 5776 5777 5777 5778 5779 5779 5780 5781 5781 5782 5782 5783 5783 5784 5784 5784 5784 5785 5785 5785 5785 5785 5785 5784 5784 5783
5729 5733 5736 5740 5743 5747 5749 5752 5754 5756 5759 5761 5763 5765 5766 5767 5768 5769 5769 5770 5771 5771 5772 5773 5773 5774 5775 5776 5776 5776 5777 5777 5778 5779 5779 5779 5778 5779 5779 5778 5778 5777 5776 5775
5723 5727 5730 5733 5736 5740 5743 5745 5748 5750 5752 5754 5756 5758 5759 5760 5761 5762 5763 5764 5764 5765 5765 5766 5767 5768 5768 5769 5769 5770 5771 5771 5771 5772 5772 5773 5773 5772 5772 5772 5771 5770 5769 5768
5717 5720 5723 5727 5730 5733 5736 5739 5741 5744 5746 5748 5750 5751 5753 5754 5755 5756 5756 5757 5758 5758 5759 5760 5761 5762 5762 5762 5763 5764 5764 5765 5765 5765 5766 5766 5766 5766 5765 5765 5764 5762 5761 5760
5711 5715 5718 5721 5724 5727 5730 5733 5735 5737 5740 5742 5744 5745 5747 5748 5749 5750 5751 5751 5752 5753 5754 5755 5755 5756 5756 5757 5757 5758 5759 5759 5759 5759 5760 5760 5760 5759 5758 5757 5756 5755 5753 5751
5706 5709 5712 5715 5718 5721 5724 5727 5730 5732 5734 5736 5738 5740 5741 5743 5744 5745 5745 5746 5747 5748 5748 5749 5750 5750 5751 5751 5752 5752 5753 5753 5753 5753 5753 5753 5752 5751 5751 5749 5748 5746 5744 5742
5701 5704 5707 5710 5713 5716 5719 5722 5725 5727 5729 5731 5733 5735 5736 5738 5739 5740 5740 5741 5742 5742 5743 5744 5744 5745 5745 5746 5746 5747 5747 5747 5747 5747 5746 5746 5745 5744 5743 5741 5740 5738 5736 5734
5697 5700 5703 5706 5709 5711 5714 5717 5720 5722 5724 5727 5728 5730 5732 5733 5734 5735 5736 5737 5737 5738 5739 5739 5739 5740 5741 5741 5741 5742 5741 5741 5741 5741 5740 5739 5738 5737 5736 5734 5732 5730 5728 5726
5693 5696 5698 5701 5704 5707 5710 5713 5716 5718 5720 5722 5724 5726 5727 5729 5730 5731 5732 5732 5733 5734 5734 5735 5735 5735 5736 5736 5736 5736 5736 5736 5735 5735 5734 5732 5731 5730 5728 5727 5725 5723 5720 5718
5689 5692 5695 5698 5701 5704 5706 5709 5712 5714 5716 5718 5720 5722 5723 5724 5726 5727 5727 5728 5729 5730 5730 5730 5731 5731 5731 5731 5731 5731 5731 5730 5729 5728 5727 5726 5725 5723 5721 5719 5717 5714 5712 5708
5686 5689 5692 5694 5697 5700 5703 5706 5708 5711 5713 5715 5716 5718 5720 5721 5722 5723 5724 5724 5725 5726 5726 5726 5726 5726 5727 5726 5726 5726 5725 5724 5723 5722 5721 5719 5718 5716 5713 5711 5708 5705 5702 5698
5684 5687 5689 5692 5695 5698 5700 5703 5706 5708 5710 5712 5714 5715 5717 5718 5719 5720 5720 5721 5721 5722 5722 5722 5722 5722 5722 5721 5721 5720 5719 5718 5717 5715 5714 5712 5710 5707 5705 5702 5699 5695 5692 5688
5682 5685 5688 5691 5693 5696 5698 5701 5703 5705 5707 5709 5711 5713 5714 5715 5716 5716 5717 5717 5718 5718 5718 5718 5718 5717 5717 5716 5715 5714 5713 5712 5710 5708 5706 5704 5702 5699 5696 5693 5689 5686 5682 5678
5680 5683 5686 5689 5691 5694 5696 5699 5701 5703 5705 5707 5708 5709 5711 5711 5712 5713 5713 5713 5713 5714 5713 5713 5713 5712 5711 5710 5709 5708 5706 5704 5703 5700 5698 5696 5693 5690 5687 5684 5680 5676 5673 5669
5679 5682 5685 5688 5690 5693 5695 5697 5699 5701 5703 5704 5705 5706 5707 5708 5708 5709 5709 5709 5709 5709 5709 5708 5707 5706 5705 5704 5703 5701 5699 5697 5695 5693 5690 5688 5685 5682 5678 5675 5672 5668 5664 5661
5678 5681 5684 5687 5689 5692 5694 5696 5698 5699 5700 5702 5703 5703 5704 5705 5705 5705 5705 5705 5704 5704 5703 5702 5701 5700 5699 5697 5696 5694 5692 5690 5687 5685 5682 5679 5677 5674 5670 5667 5664 5661 5657 5654
5678 5681 5683 5686 5688 5690 5692 5694 5695 5697 5698 5699 5700 5700 5700 5701 5701 5701 5700 5700 5699 5699 5698 5696 5695 5693 5692 5690 5688 5686 5684 5682 5679 5677 5674 5672 5669 5666 5663 5660 5657 5654 5650 5647
5678 5680 5682 5685 5687 5689 5691 5692 5693 5694 5695 5696 5696 5696 5696 5696 5696 5696 5695 5694 5693 5692 5691 5689 5688 5686 5684 5682 5680 5678 5676 5674 5672 5669 5667 5664 5662 5659 5656 5653 5650 5647 5644 5641